[[{"header":{"parameterUnit":"m.s-1","parameterCategory":1,"la1":30.2991,"la2":30.254,"lo1":-89.0895,"lo2":-89.0444,"dy":0.0017,"dx":0.0017,"nx":28,"ny":28,"refTime":"2025-07-11T03:00:00:Z","depth":0,"parameterNumber":2,"parameterNumberName":"U-component_of_WINDS"},"data":[0,0,0,0,0,0,0,0,0,0,0,0,0,0,0,0,0,0,0,0,0,0,0,0,0,0,0,0,0,0,0,0,0,0,0,0,0,0,0,0,0,0,0,0,0,0,0,0,0,0,0,0,0,0,0,0,0,0,2.1077,2.1078,0,2.1215,2.1217,2.1218,2.1247,2.1246,2.1245,2.1244,2.1385,2.139,2.1395,0,0,0,0,0,0,0,0,0,0,0,0,0,2.0834,2.0838,2.1076,2.1078,2.108,2.1215,2.1217,2.1219,2.1248,2.1246,2.1245,2.1244,2.1384,2.1389,2.1395,0,0,0,0,0,0,0,0,0,0,0,0,0,2.0953,2.084,2.1076,2.1111,2.1115,2.1215,2.1217,2.1219,2.1248,2.1246,2.1245,2.1243,2.1382,2.1389,2.1396,2.1471,0,0,2.1417,2.142,0,0,0,0,0,0,0,0,2.0946,2.0961,2.1104,2.1108,2.1114,2.1212,2.1183,2.1304,2.1248,2.1197,2.1244,2.1242,2.1329,2.134,2.137,2.1477,2.1483,2.1418,2.1422,2.1425,2.1427,0,0,0,0,0,0,0,2.0938,2.0956,2.1131,2.1106,2.1112,2.1118,2.1133,2.1206,2.127,2.1202,2.1204,2.122,2.1331,2.1363,2.1373,2.1485,2.1418,2.1424,2.1429,2.1431,2.1659,2.1661,0,0,0,0,0,0,2.0924,2.0949,2.1127,2.1136,2.1024,2.1124,2.1141,2.1182,2.1269,2.1281,2.1221,2.1221,2.1352,2.1365,2.1378,2.147,2.1425,2.1432,2.1436,2.1657,2.166,2.1662,0,0,0,0,0,0,2.0918,2.0939,2.1121,2.1043,2.1066,2.113,2.1176,2.1186,2.1217,2.1284,2.1296,2.1242,2.1351,2.1368,2.1447,2.1475,2.1435,2.1442,2.1655,2.1658,2.1661,2.1655,0,0,0,0,0,0,2.0911,2.0937,2.0967,2.1043,2.1071,2.1188,2.1178,2.119,2.123,2.123,2.1307,2.1318,2.1351,2.1436,2.1454,2.1485,2.1447,2.1653,2.1657,2.166,2.1653,2.1657,2.1661,0,0,0,0,0,2.0902,2.096,2.0968,2.0989,2.1109,2.119,2.1205,2.1243,2.1232,2.1262,2.1304,2.1315,2.147,2.1444,2.1464,2.1497,2.1651,2.1656,2.1659,2.1651,2.1657,2.1661,0,0,0,0,0,0,2.0885,2.0971,2.0981,2.1065,2.112,2.1195,2.1233,2.1247,2.1307,2.1305,2.1348,2.1365,2.1441,2.1477,2.1447,2.1573,2.156,2.1568,2.1547,2.1552,2.1556,2.1545,2.1453,0,0,0,0,0,2.0891,2.095,2.1022,2.1089,2.1116,2.117,2.1206,2.123,2.1289,2.1312,2.1361,2.1417,2.1478,2.1517,2.1578,2.1659,2.1675,2.1691,2.1695,2.1698,2.1704,2.1748,2.1756,2.1675,2.1675,2.1675,0,0,2.0903,2.0958,2.0992,2.1086,2.1132,2.1191,2.1189,2.1252,2.1296,2.1322,2.1399,2.1436,2.1502,2.1582,2.1619,2.1614,2.1731,2.1703,2.1705,2.171,2.1753,2.1761,2.1768,2.1678,2.1677,2.1677,0,0,2.0957,2.1004,2.1065,2.111,2.1179,2.1215,2.1229,2.1302,2.1328,2.1406,2.1426,2.1478,2.1583,2.1628,2.1665,2.1734,2.1746,2.1753,2.1773,2.1815,2.1822,2.1827,2.185,2.1858,2.1759,2.1759,2.1759,0,2.0963,2.1054,2.1094,2.1156,2.1196,2.1222,2.1283,2.1325,2.141,2.1436,2.143,2.156,2.1607,2.1696,2.1713,2.1743,2.1759,2.1744,2.1818,2.1824,2.183,2.1852,2.1861,2.1759,2.1759,2.1759,2.1759,0,2.1058,2.1121,2.1162,2.1243,2.1287,2.1348,2.1396,2.1437,2.1457,2.1492,2.157,2.1626,2.1697,2.1721,2.1741,2.1813,2.1808,2.1809,2.1796,2.1837,2.1859,2.1868,2.1759,2.1759,2.1759,2.1759,0,0,2.1104,2.1206,2.122,2.1256,2.1334,2.1383,2.1444,2.1514,2.1547,2.1605,2.1656,2.1744,2.1745,2.1786,2.1812,2.1849,2.1898,2.1846,2.1848,2.1852,2.1979,2.1977,2.1986,2.1907,2.1909,2.191,2.1973,0,2.1165,2.1277,2.1314,2.1406,2.1463,2.1488,2.1542,2.1594,2.1629,2.1682,2.1721,2.1781,2.1779,2.1804,2.1842,2.1884,2.1924,2.188,2.1954,2.1957,2.1936,2.1998,2.1996,2.2053,2.1982,2.1984,2.1985,0,2.1252,2.131,2.1408,2.1477,2.1503,2.155,2.1616,2.1667,2.1727,2.175,2.1795,2.1818,2.1882,2.1866,2.1954,2.1924,2.1956,2.1981,2.1984,2.1992,2.1972,2.2005,2.2072,2.208,2.1999,2.1998,2.1997,0,2.1273,2.1376,2.1448,2.1479,2.1562,2.1594,2.163,2.1688,2.1727,2.1785,2.181,2.1875,2.191,2.1958,2.1997,2.1982,2.2081,2.2069,2.2101,2.21,2.212,2.2118,2.2191,2.2143,2.2143,2.2143,2.2143,0,2.1337,2.1395,2.1458,2.1502,2.1568,2.1609,2.1673,2.171,2.1762,2.1812,2.1839,2.1885,2.1934,2.1987,2.2018,2.2086,2.2102,2.2121,2.2128,2.2118,2.2115,2.2139,2.2135,2.2145,2.2145,2.2144,2.2144,0,2.1371,2.1416,2.1495,2.1567,2.1587,2.1632,2.1693,2.1735,2.1771,2.1835,2.1852,2.1908,2.1972,2.2016,2.2098,2.2118,2.2191,2.2198,2.217,2.2173,2.2202,2.2198,2.2292,2.2306,2.225,2.225,2.2251,0,2.1408,2.1453,2.153,2.1566,2.1602,2.166,2.1699,2.1742,2.1782,2.1853,2.1887,2.1952,2.2007,2.2107,2.2155,2.2217,2.2225,2.2254,2.2235,2.2222,2.2224,2.222,2.2224,2.2256,2.2257,2.2257,2.2257,0,2.1468,2.1488,2.1545,2.1609,2.1656,2.1708,2.1761,2.1789,2.184,2.1884,2.1949,2.1991,2.2074,2.2138,2.2205,2.2241,2.2257,2.2263,2.2273,2.2262,2.2244,2.2253,2.2176,2.226,2.226,2.226,2.226,2.2259,2.1504,2.1545,2.1605,2.1667,2.1711,2.1759,2.1802,2.1844,2.1899,2.197,2.1992,2.2059,2.2117,2.2208,2.2245,2.2298,2.2296,2.2311,2.2315,2.2318,2.2316,2.2236,2.2311,2.2311,2.231,2.231,2.231,0,2.1564,2.1603,2.166,2.1733,2.1781,2.1793,2.1851,2.1891,2.195,2.2003,2.2056,2.213,2.2192,2.2244,2.2308,2.234,2.2349,2.2355,2.2353,2.236,2.2316,2.23,2.2347,2.2347,2.2347,2.2347,2.2347,2.2347,2.16,2.167,2.1697,2.1787,2.1827,2.1893,2.1926,2.197,2.2012,2.2094,2.2146,2.2179,2.2232,2.2299,2.2356,2.237,2.2392,2.2396,2.2411,2.2368,2.2364,2.236,2.2345,2.2401,2.2401,2.2452,2.2452,2.2452]},{"header":{"parameterUnit":"m.s-1","parameterCategory":1,"la1":30.2991,"la2":30.254,"lo1":-89.0895,"lo2":-89.0444,"dy":0.0017,"dx":0.0017,"nx":28,"ny":28,"refTime":"2025-07-11T03:00:00:Z","depth":0,"parameterNumber":3,"parameterNumberName":"V-component_of_WINDS"},"data":[0,0,0,0,0,0,0,0,0,0,0,0,0,0,0,0,0,0,0,0,0,0,0,0,0,0,0,0,0,0,0,0,0,0,0,0,0,0,0,0,0,0,0,0,0,0,0,0,0,0,0,0,0,0,0,0,0,0,5.0328,5.0327,0,5.0283,5.0283,5.0282,5.0202,5.0201,5.0199,5.0198,5.0154,5.0154,5.0154,0,0,0,0,0,0,0,0,0,0,0,0,0,5.0345,5.0345,5.0328,5.0327,5.0327,5.0283,5.0283,5.0282,5.0203,5.0201,5.0199,5.0197,5.0154,5.0154,5.0154,0,0,0,0,0,0,0,0,0,0,0,0,0,5.0323,5.0345,5.0328,5.0282,5.0277,5.0284,5.0283,5.0282,5.0203,5.0201,5.0198,5.0196,5.0153,5.0154,5.0154,5.0203,0,0,5.0155,5.0156,0,0,0,0,0,0,0,0,5.0324,5.0322,5.0289,5.0285,5.028,5.0246,5.0272,5.0255,5.0203,5.0231,5.0198,5.0195,5.0186,5.0184,5.0181,5.0201,5.0199,5.0155,5.0156,5.0156,5.0156,0,0,0,0,0,0,0,5.0326,5.0324,5.031,5.0289,5.0283,5.0264,5.0258,5.0269,5.0222,5.0229,5.0223,5.0218,5.0183,5.018,5.0179,5.0198,5.0155,5.0156,5.0156,5.0156,5.0254,5.0257,0,0,0,0,0,0,5.0334,5.0325,5.0312,5.0309,5.0297,5.0265,5.0259,5.0259,5.0222,5.0214,5.022,5.0215,5.0181,5.0179,5.0177,5.023,5.0156,5.0156,5.0156,5.0252,5.0255,5.0257,0,0,0,0,0,0,5.0334,5.0333,5.0313,5.0316,5.0311,5.0267,5.0268,5.026,5.0256,5.0216,5.0207,5.0226,5.0179,5.0177,5.0196,5.0228,5.0156,5.0157,5.0249,5.0253,5.0256,5.0338,0,0,0,0,0,0,5.0335,5.0334,5.0352,5.0316,5.0312,5.0334,5.027,5.026,5.0257,5.0249,5.0219,5.0211,5.0177,5.0196,5.0197,5.0227,5.0157,5.0246,5.0251,5.0255,5.0332,5.0344,5.0354,0,0,0,0,0,5.0336,5.0377,5.0353,5.0352,5.0333,5.0335,5.0333,5.0292,5.026,5.0277,5.0251,5.0212,5.0225,5.0199,5.0199,5.023,5.0244,5.0249,5.0255,5.0327,5.0341,5.0353,0,0,0,0,0,0,5.0418,5.0371,5.0344,5.0375,5.036,5.0322,5.0343,5.0309,5.0302,5.0295,5.0246,5.024,5.0266,5.025,5.0222,5.0274,5.0228,5.0234,5.0283,5.0296,5.0307,5.031,5.0157,0,0,0,0,0,5.0439,5.0445,5.0404,5.0435,5.0429,5.0387,5.0387,5.0357,5.0339,5.0333,5.0308,5.0292,5.0292,5.0294,5.0292,5.033,5.0321,5.0351,5.0362,5.0371,5.0376,5.0394,5.0406,5.0275,5.0275,5.0275,0,0,5.0483,5.0459,5.0466,5.0451,5.0435,5.0442,5.0382,5.0393,5.0397,5.0334,5.0351,5.0333,5.0312,5.0341,5.0353,5.0328,5.041,5.0377,5.0385,5.0385,5.04,5.0413,5.0424,5.0279,5.0278,5.0277,0,0,5.0568,5.055,5.0573,5.0559,5.0536,5.0508,5.0514,5.0482,5.0467,5.0483,5.0435,5.044,5.0442,5.0429,5.0423,5.0502,5.0466,5.0503,5.0559,5.0577,5.0587,5.0596,5.0624,5.0634,5.0509,5.0509,5.0509,0,5.0626,5.0634,5.059,5.0603,5.0597,5.054,5.0563,5.0552,5.053,5.0528,5.0501,5.0501,5.0484,5.0508,5.0528,5.0525,5.053,5.0506,5.0589,5.0598,5.0606,5.0631,5.0642,5.0513,5.0513,5.0512,5.0512,0,5.0706,5.0713,5.0734,5.0714,5.0711,5.0729,5.0688,5.0691,5.0661,5.0636,5.0653,5.063,5.0622,5.0626,5.0598,5.0646,5.0632,5.0599,5.0551,5.0623,5.0646,5.0656,5.052,5.0518,5.0517,5.0516,0,0,5.0839,5.0794,5.0803,5.0792,5.0763,5.0768,5.0783,5.0775,5.0778,5.0765,5.0776,5.0779,5.0747,5.074,5.071,5.0726,5.0789,5.069,5.0689,5.0708,5.0841,5.0866,5.0878,5.0765,5.0767,5.0769,5.0842,0,5.0916,5.094,5.09,5.0933,5.0938,5.0884,5.0898,5.0882,5.0859,5.086,5.0835,5.0837,5.0796,5.0791,5.0805,5.0779,5.0815,5.0773,5.0775,5.0776,5.0781,5.089,5.0916,5.0986,5.0851,5.0852,5.0854,0,5.1009,5.1,5.1033,5.1001,5.1002,5.1015,5.1003,5.1006,5.0986,5.0968,5.0961,5.0925,5.0938,5.0893,5.091,5.0882,5.0881,5.0868,5.087,5.0868,5.0818,5.0889,5.1008,5.1018,5.0867,5.0866,5.0865,0,5.1101,5.1098,5.1117,5.111,5.1074,5.1084,5.1069,5.1047,5.1045,5.1035,5.1033,5.1026,5.1021,5.1017,5.0979,5.095,5.1001,5.0953,5.0986,5.0987,5.0998,5.0998,5.1117,5.0999,5.0999,5.0999,5.0999,0,5.1191,5.1213,5.1158,5.1169,5.1192,5.1148,5.1172,5.1152,5.1133,5.114,5.1093,5.1101,5.1052,5.1054,5.1025,5.1043,5.1042,5.1028,5.102,5.1031,5.1033,5.1029,5.1023,5.1002,5.1001,5.1001,5.1,0,5.1298,5.1262,5.1278,5.1243,5.1234,5.1253,5.1222,5.1232,5.1206,5.1215,5.1215,5.1175,5.1175,5.1138,5.1131,5.1111,5.1141,5.1125,5.1147,5.1142,5.1176,5.1173,5.1297,5.131,5.1185,5.1186,5.1187,0,5.1356,5.1372,5.1338,5.1339,5.1327,5.1329,5.1326,5.1283,5.1281,5.126,5.1272,5.1268,5.1263,5.1265,5.1236,5.123,5.1212,5.1256,5.1211,5.1222,5.1211,5.1211,5.1211,5.1265,5.1266,5.1268,5.1269,0,5.1464,5.1446,5.1443,5.1434,5.1431,5.1422,5.141,5.1414,5.1366,5.1367,5.1366,5.1362,5.1354,5.1351,5.134,5.1324,5.1289,5.1283,5.129,5.1302,5.1314,5.1307,5.1172,5.128,5.1279,5.1278,5.1278,5.1277,5.1548,5.1559,5.1537,5.1535,5.1521,5.1511,5.1518,5.1493,5.1492,5.1481,5.1456,5.146,5.1439,5.142,5.1408,5.141,5.1388,5.1399,5.1401,5.1404,5.1411,5.1315,5.1408,5.1408,5.1407,5.1407,5.1407,0,5.1652,5.1635,5.1634,5.1619,5.1617,5.1584,5.1569,5.157,5.1573,5.1557,5.1553,5.1552,5.1549,5.1519,5.1512,5.1519,5.1502,5.1518,5.1517,5.1514,5.1431,5.1425,5.1532,5.1532,5.1532,5.1532,5.1532,5.1532,5.1706,5.1723,5.1702,5.1712,5.1694,5.1697,5.1691,5.1682,5.1668,5.1669,5.1666,5.1647,5.1625,5.1616,5.1611,5.1602,5.1602,5.1623,5.1609,5.1532,5.152,5.1508,5.1502,5.1624,5.1624,5.1691,5.1692,5.1692]}]]